[[{"header":{"parameterUnit":"m.s-1","parameterCategory":1,"la1":30.2991,"la2":30.254,"lo1":-89.0895,"lo2":-89.0444,"dy":0.0017,"dx":0.0017,"nx":28,"ny":28,"refTime":"2023-09-23T09:00:00:Z","depth":0,"parameterNumber":2,"parameterNumberName":"U-component_of_WINDS"},"data":[0,0,0,0,0,0,0,0,0,0,0,0,0,0,0,0,0,0,0,0,0,0,0,0,0,0,0,0,0,0,0,0,0,0,0,0,0,0,0,0,0,0,0,0,0,0,0,0,0,0,0,0,0,0,0,0,0,0,-0.4154,-0.4154,0,-0.4193,-0.4193,-0.4193,-0.4198,-0.4198,-0.4197,-0.4197,-0.4237,-0.4238,-0.4239,0,0,0,0,0,0,0,0,0,0,0,0,0,-0.4084,-0.4086,-0.4154,-0.4154,-0.4155,-0.4192,-0.4193,-0.4194,-0.4198,-0.4198,-0.4197,-0.4197,-0.4236,-0.4238,-0.424,0,0,0,0,0,0,0,0,0,0,0,0,0,-0.4118,-0.4086,-0.4154,-0.4161,-0.4163,-0.4192,-0.4193,-0.4194,-0.4198,-0.4198,-0.4197,-0.4197,-0.4236,-0.4238,-0.424,-0.4264,0,0,-0.4246,-0.4247,0,0,0,0,0,0,0,0,-0.4116,-0.4121,-0.416,-0.4161,-0.4162,-0.419,-0.4183,-0.4217,-0.4198,-0.4185,-0.4197,-0.4196,-0.4222,-0.4225,-0.4233,-0.4266,-0.4268,-0.4246,-0.4248,-0.4249,-0.4249,0,0,0,0,0,0,0,-0.4114,-0.4119,-0.4169,-0.416,-0.4162,-0.4163,-0.4168,-0.419,-0.4206,-0.4186,-0.4186,-0.4191,-0.4222,-0.4231,-0.4234,-0.4268,-0.4246,-0.4248,-0.425,-0.425,-0.4325,-0.4326,0,0,0,0,0,0,-0.411,-0.4117,-0.4168,-0.417,-0.4137,-0.4165,-0.417,-0.4182,-0.4206,-0.4209,-0.4191,-0.4191,-0.4228,-0.4232,-0.4236,-0.4267,-0.4249,-0.4251,-0.4252,-0.4325,-0.4325,-0.4326,0,0,0,0,0,0,-0.4108,-0.4114,-0.4166,-0.4144,-0.415,-0.4167,-0.418,-0.4183,-0.4192,-0.421,-0.4213,-0.4198,-0.4228,-0.4233,-0.4258,-0.4269,-0.4252,-0.4253,-0.4324,-0.4325,-0.4326,-0.433,0,0,0,0,0,0,-0.4106,-0.4114,-0.4123,-0.4144,-0.4152,-0.4187,-0.4181,-0.4184,-0.4196,-0.4195,-0.4217,-0.4219,-0.4228,-0.4254,-0.426,-0.4271,-0.4255,-0.4323,-0.4324,-0.4325,-0.4329,-0.4331,-0.4333,0,0,0,0,0,-0.4104,-0.4122,-0.4123,-0.4129,-0.4163,-0.4188,-0.4192,-0.4201,-0.4196,-0.4206,-0.4218,-0.4219,-0.4267,-0.4257,-0.4263,-0.4275,-0.4322,-0.4324,-0.4325,-0.4328,-0.433,-0.4333,0,0,0,0,0,0,-0.4102,-0.4125,-0.4127,-0.4152,-0.4168,-0.4188,-0.4201,-0.4203,-0.4221,-0.422,-0.4231,-0.4235,-0.426,-0.427,-0.4259,-0.4301,-0.4294,-0.4297,-0.4294,-0.4296,-0.4298,-0.4296,-0.4257,0,0,0,0,0,-0.4104,-0.4122,-0.4141,-0.4162,-0.417,-0.4184,-0.4195,-0.4201,-0.4218,-0.4224,-0.4238,-0.4254,-0.4273,-0.4285,-0.4303,-0.433,-0.4335,-0.4342,-0.4344,-0.4345,-0.4348,-0.4364,-0.4368,-0.4331,-0.4331,-0.4331,0,0,-0.4109,-0.4124,-0.4135,-0.4162,-0.4175,-0.4194,-0.419,-0.4209,-0.4223,-0.4227,-0.4252,-0.4262,-0.4281,-0.4308,-0.432,-0.4317,-0.4359,-0.4347,-0.4348,-0.435,-0.4366,-0.437,-0.4373,-0.4333,-0.4332,-0.4332,0,0,-0.4129,-0.4141,-0.4161,-0.4174,-0.4194,-0.4204,-0.4208,-0.4229,-0.4236,-0.4261,-0.4265,-0.4282,-0.4314,-0.4328,-0.4339,-0.4365,-0.4367,-0.4371,-0.4381,-0.4397,-0.44,-0.4403,-0.4413,-0.4417,-0.4373,-0.4373,-0.4373,0,-0.4133,-0.4161,-0.417,-0.419,-0.4203,-0.4208,-0.4228,-0.424,-0.4265,-0.4274,-0.427,-0.4311,-0.4324,-0.4355,-0.4361,-0.437,-0.4376,-0.4369,-0.4399,-0.4402,-0.4404,-0.4414,-0.4418,-0.4374,-0.4374,-0.4374,-0.4374,0,-0.4166,-0.4185,-0.4198,-0.4223,-0.4237,-0.4257,-0.427,-0.4283,-0.4287,-0.4298,-0.4324,-0.434,-0.4362,-0.437,-0.4374,-0.4401,-0.4399,-0.4397,-0.439,-0.4408,-0.4418,-0.4422,-0.4374,-0.4374,-0.4374,-0.4374,0,0,-0.4184,-0.4215,-0.4219,-0.4231,-0.4254,-0.427,-0.429,-0.4313,-0.4324,-0.4341,-0.4359,-0.4387,-0.4386,-0.4399,-0.4405,-0.4419,-0.444,-0.4415,-0.4416,-0.442,-0.4472,-0.4474,-0.4479,-0.4442,-0.4442,-0.4443,-0.4471,0,-0.4207,-0.4244,-0.4254,-0.4285,-0.4304,-0.431,-0.4328,-0.4344,-0.4355,-0.4373,-0.4384,-0.4404,-0.44,-0.4408,-0.4422,-0.4435,-0.4451,-0.4433,-0.4459,-0.446,-0.4455,-0.4484,-0.4485,-0.4511,-0.4475,-0.4476,-0.4476,0,-0.4238,-0.4257,-0.4291,-0.4313,-0.4321,-0.4337,-0.4359,-0.4376,-0.4395,-0.4402,-0.4417,-0.4422,-0.4445,-0.4436,-0.4468,-0.4455,-0.4467,-0.4475,-0.4476,-0.4479,-0.447,-0.4489,-0.452,-0.4524,-0.4482,-0.4481,-0.4481,0,-0.425,-0.4284,-0.4309,-0.4318,-0.4344,-0.4356,-0.4367,-0.4386,-0.4399,-0.4418,-0.4427,-0.4448,-0.446,-0.4477,-0.4488,-0.4481,-0.4519,-0.4511,-0.4526,-0.4526,-0.4534,-0.4534,-0.4569,-0.454,-0.454,-0.454,-0.454,0,-0.4275,-0.4296,-0.4315,-0.433,-0.4354,-0.4365,-0.4388,-0.44,-0.4416,-0.4435,-0.444,-0.4457,-0.4471,-0.449,-0.4499,-0.4524,-0.4529,-0.4536,-0.4538,-0.4536,-0.4535,-0.4544,-0.4543,-0.4541,-0.4541,-0.4541,-0.4541,0,-0.4293,-0.4306,-0.4333,-0.4356,-0.4362,-0.4379,-0.4398,-0.4414,-0.4425,-0.4448,-0.4454,-0.4471,-0.4494,-0.4507,-0.4535,-0.4541,-0.457,-0.4571,-0.4564,-0.4565,-0.4579,-0.4578,-0.4622,-0.4628,-0.4595,-0.4595,-0.4595,0,-0.4308,-0.4324,-0.4349,-0.4362,-0.4374,-0.4394,-0.4408,-0.442,-0.4434,-0.4458,-0.4471,-0.4494,-0.4513,-0.4549,-0.4565,-0.4587,-0.4589,-0.4603,-0.4592,-0.459,-0.459,-0.459,-0.4592,-0.4604,-0.4605,-0.4605,-0.4605,0,-0.4335,-0.4341,-0.436,-0.4383,-0.4399,-0.4417,-0.4435,-0.4445,-0.4461,-0.4476,-0.45,-0.4515,-0.4545,-0.4568,-0.4592,-0.4604,-0.4608,-0.4608,-0.4613,-0.4611,-0.4607,-0.4611,-0.457,-0.4607,-0.4607,-0.4607,-0.4607,-0.4607,-0.4352,-0.4368,-0.4388,-0.441,-0.4425,-0.4442,-0.4458,-0.4471,-0.4491,-0.4517,-0.4523,-0.4548,-0.4568,-0.46,-0.4613,-0.4633,-0.4631,-0.4637,-0.4639,-0.4641,-0.4642,-0.4603,-0.4637,-0.4637,-0.4637,-0.4637,-0.4637,0,-0.438,-0.4394,-0.4414,-0.444,-0.4457,-0.4459,-0.448,-0.4494,-0.4517,-0.4535,-0.4554,-0.4582,-0.4605,-0.4622,-0.4646,-0.4659,-0.4662,-0.4665,-0.4665,-0.4668,-0.4642,-0.4636,-0.4663,-0.4663,-0.4663,-0.4663,-0.4663,-0.4663,-0.4397,-0.4424,-0.4432,-0.4466,-0.448,-0.4505,-0.4517,-0.4533,-0.4548,-0.4579,-0.4598,-0.4609,-0.4627,-0.4653,-0.4674,-0.4679,-0.4688,-0.4691,-0.4696,-0.4672,-0.4669,-0.4667,-0.4661,-0.4693,-0.4693,-0.472,-0.472,-0.4721]},{"header":{"parameterUnit":"m.s-1","parameterCategory":1,"la1":30.2991,"la2":30.254,"lo1":-89.0895,"lo2":-89.0444,"dy":0.0017,"dx":0.0017,"nx":28,"ny":28,"refTime":"2023-09-23T09:00:00:Z","depth":0,"parameterNumber":3,"parameterNumberName":"V-component_of_WINDS"},"data":[0,0,0,0,0,0,0,0,0,0,0,0,0,0,0,0,0,0,0,0,0,0,0,0,0,0,0,0,0,0,0,0,0,0,0,0,0,0,0,0,0,0,0,0,0,0,0,0,0,0,0,0,0,0,0,0,0,0,3.0687,3.0687,0,3.0644,3.0644,3.0643,3.0561,3.0559,3.0558,3.0556,3.0512,3.0513,3.0513,0,0,0,0,0,0,0,0,0,0,0,0,0,3.0697,3.0698,3.0687,3.0687,3.0686,3.0644,3.0644,3.0643,3.0561,3.0559,3.0557,3.0556,3.0512,3.0513,3.0513,0,0,0,0,0,0,0,0,0,0,0,0,0,3.0678,3.0698,3.0688,3.064,3.0636,3.0645,3.0644,3.0643,3.0562,3.0559,3.0557,3.0555,3.0512,3.0513,3.0513,3.0564,0,0,3.0515,3.0515,0,0,0,0,0,0,0,0,3.0679,3.0677,3.0648,3.0644,3.0638,3.0606,3.0631,3.0617,3.0562,3.059,3.0556,3.0554,3.0545,3.0543,3.054,3.0562,3.056,3.0515,3.0515,3.0515,3.0515,0,0,0,0,0,0,0,3.068,3.0679,3.067,3.0648,3.0642,3.0621,3.0616,3.0628,3.0582,3.0587,3.0581,3.0577,3.0542,3.054,3.0539,3.056,3.0515,3.0515,3.0515,3.0516,3.0618,3.062,0,0,0,0,0,0,3.0689,3.068,3.0672,3.0669,3.0653,3.0623,3.0617,3.0619,3.0581,3.0573,3.0579,3.0574,3.054,3.0538,3.0537,3.0591,3.0515,3.0516,3.0516,3.0616,3.0619,3.0621,0,0,0,0,0,0,3.0689,3.0689,3.0673,3.0673,3.0669,3.0625,3.0628,3.0619,3.0616,3.0575,3.0567,3.0585,3.0538,3.0536,3.0557,3.0589,3.0516,3.0516,3.0613,3.0617,3.062,3.0703,0,0,0,0,0,0,3.069,3.0689,3.0709,3.0674,3.067,3.0695,3.063,3.062,3.0617,3.061,3.0579,3.0571,3.0536,3.0557,3.0558,3.0588,3.0517,3.061,3.0615,3.0619,3.0698,3.0709,3.072,0,0,0,0,0,3.0691,3.0735,3.071,3.071,3.0693,3.0697,3.0695,3.0654,3.0621,3.0639,3.0612,3.0572,3.0586,3.056,3.056,3.0591,3.0608,3.0613,3.0618,3.0693,3.0707,3.0719,0,0,0,0,0,0,3.0775,3.0729,3.0702,3.0736,3.0721,3.0684,3.0706,3.0671,3.0665,3.0658,3.0607,3.0601,3.0628,3.0612,3.0584,3.0637,3.059,3.0596,3.0646,3.066,3.0671,3.0673,3.0517,0,0,0,0,0,3.0798,3.0805,3.0765,3.0799,3.0793,3.0751,3.0751,3.0721,3.0703,3.0696,3.0671,3.0656,3.0656,3.0657,3.0656,3.0695,3.0686,3.0717,3.0728,3.0737,3.0742,3.0759,3.0771,3.0639,3.0639,3.0639,0,0,3.0844,3.082,3.0828,3.0815,3.08,3.0808,3.0746,3.0758,3.0763,3.0698,3.0716,3.0697,3.0676,3.0706,3.0718,3.0693,3.0776,3.0744,3.0752,3.0751,3.0766,3.0778,3.0789,3.0643,3.0642,3.0642,0,0,3.0933,3.0917,3.0942,3.0927,3.0905,3.0876,3.0883,3.085,3.0834,3.0852,3.0802,3.0808,3.081,3.0796,3.079,3.0871,3.0833,3.0872,3.0929,3.0946,3.0956,3.0965,3.0992,3.1002,3.0878,3.0878,3.0878,0,3.0993,3.1004,3.0959,3.0973,3.0968,3.0909,3.0934,3.0922,3.0901,3.0898,3.0871,3.0871,3.0853,3.0877,3.0897,3.0895,3.0898,3.0875,3.0959,3.0967,3.0975,3.0999,3.101,3.0883,3.0882,3.0882,3.0881,0,3.1078,3.1086,3.1109,3.1088,3.1086,3.1105,3.1063,3.1066,3.1035,3.1009,3.1026,3.1002,3.0993,3.0998,3.0969,3.1017,3.1002,3.0968,3.0919,3.0993,3.1015,3.1024,3.089,3.0888,3.0886,3.0885,0,0,3.1218,3.1172,3.1181,3.1169,3.114,3.1145,3.1161,3.1151,3.1154,3.1141,3.1151,3.1154,3.1121,3.1114,3.1083,3.1098,3.116,3.1061,3.106,3.1078,3.121,3.1234,3.1246,3.1136,3.1138,3.1139,3.121,0,3.1298,3.1323,3.1282,3.1316,3.1321,3.1265,3.1278,3.1261,3.1237,3.1238,3.1211,3.1213,3.1171,3.1165,3.1178,3.115,3.1186,3.1145,3.1143,3.1144,3.1148,3.1258,3.1284,3.1353,3.1219,3.1221,3.1222,0,3.1395,3.1385,3.1419,3.1385,3.1386,3.1399,3.1385,3.1388,3.1366,3.1347,3.1338,3.1301,3.1313,3.1267,3.1282,3.1255,3.1252,3.1238,3.124,3.1236,3.1186,3.1255,3.1374,3.1384,3.1235,3.1234,3.1233,0,3.149,3.1486,3.1505,3.1498,3.1459,3.1469,3.1454,3.143,3.1426,3.1415,3.1412,3.1403,3.1397,3.139,3.1351,3.1322,3.1369,3.1321,3.1352,3.1353,3.1363,3.1363,3.1481,3.1366,3.1366,3.1365,3.1365,0,3.1583,3.1605,3.1547,3.1558,3.1581,3.1534,3.1558,3.1536,3.1515,3.1521,3.1473,3.1479,3.1427,3.1427,3.1397,3.1411,3.141,3.1394,3.1385,3.1397,3.1399,3.1393,3.1386,3.1368,3.1367,3.1367,3.1367,0,3.1693,3.1655,3.1671,3.1633,3.1624,3.1642,3.1609,3.1617,3.159,3.1597,3.1596,3.1553,3.1551,3.1511,3.15,3.1479,3.1506,3.1489,3.1513,3.1506,3.1539,3.1536,3.1656,3.1668,3.1548,3.1549,3.155,0,3.1753,3.1769,3.1732,3.1732,3.1718,3.1719,3.1715,3.1669,3.1666,3.1642,3.1653,3.1646,3.1638,3.1636,3.1603,3.1594,3.1575,3.1618,3.1574,3.1584,3.1573,3.1572,3.1572,3.1627,3.1629,3.163,3.1631,0,3.1863,3.1843,3.1839,3.1828,3.1824,3.1813,3.1798,3.1801,3.1751,3.175,3.1746,3.174,3.1728,3.1721,3.1706,3.1688,3.1651,3.1645,3.1652,3.1663,3.1675,3.1666,3.1536,3.1643,3.1641,3.1641,3.164,3.1639,3.1948,3.1958,3.1933,3.1929,3.1914,3.1901,3.1906,3.1879,3.1876,3.1862,3.1835,3.1835,3.1811,3.1786,3.1772,3.1771,3.1748,3.1758,3.176,3.1763,3.1768,3.1677,3.1768,3.1768,3.1767,3.1767,3.1767,0,3.2054,3.2035,3.2032,3.2013,3.2009,3.1974,3.1956,3.1955,3.1956,3.1937,3.193,3.1924,3.1917,3.1883,3.1872,3.1877,3.1859,3.1875,3.1873,3.1869,3.179,3.1785,3.189,3.1889,3.1889,3.1889,3.1889,3.1889,3.2108,3.2123,3.21,3.2105,3.2086,3.2085,3.2077,3.2065,3.2049,3.2045,3.2038,3.2017,3.1991,3.1977,3.1968,3.1958,3.1955,3.1977,3.1961,3.1887,3.1875,3.1864,3.1858,3.1977,3.1977,3.204,3.204,3.2041]}]]